Weather History for PAOM - April, 2014

Change the Weather History Date:

Tuesday, April 22, 2014

  Actual Average Record
Temperature  
Mean Temperature 40 °F 24 °F  
Max Temperature 45 °F 31 °F 54 °F (1940)
Min Temperature 35 °F 18 °F -14 °F (1966)
Degree Days  
Heating Degree Days 25 41  
Month to date heating degree days 880 1030  
Since 1 July heating degree days 10653 12008  
Cooling Degree Days 0    
Month to date cooling degree days 0  
Year to date cooling degree days 0  
Moisture  
Dew Point 35 °F    
Average Humidity 0    
Maximum Humidity 0    
Minimum Humidity 0    
Precipitation  
Precipitation 0.01 in 0.03 in 0.31 in (1927)
Month to date precipitation 0.27 0.54  
Year to date precipitation 2.97 3.06  
Snow  
Snow 0.00 in 0.20 in 2.30 in (1961)
Month to date snowfall 2.5 5.9  
Since 1 July snowfall 69.1 71.5  
Snow Depth 1.00 in    
Sea Level Pressure  
Sea Level Pressure 29.81 in    
Wind  
Wind Speed 0 mph (NE)    
Max Wind Speed 20 mph    
Max Gust Speed 23 mph    
Visibility 10 miles    
Events Rain    
T = Trace of Precipitation, MM = Missing Value Source: NWS Daily Summary

Daily Weather History Graph

Daily Weather History Graph

Search for Another Location

Airport or City:

Trip Planner

Search our weather history database for the weather conditions in past years. The results will help you decide how hot, cold, wet, or windy it might be!

Date:

Astronomy

Apr. 22, 2014 Rise Set
Actual Time 7:02 AM AKDT 11:00 PM AKDT
Civil Twilight 6:00 AM AKDT 12:02 AM AKDT
Nautical Twilight 4:12 AM AKDT 1:57 AM AKDT
Astronomical Twilight Sun does not rise Sun does not rise
Moon 5:30 AM AKDT (4/22) 1:50 PM AKDT (4/22)
Length of Visible Light 18h 02m
Length of Day
15h 58m
Last Quarter, 44% of the Moon is Illuminated
Apr 22
Last Quarter
Apr 28
New
May 6
First Quarter
May 14
Full
May 21
Last Quarter

Hourly Weather History & Observations

Time (AKDT) Temp. Windchill Dew Point Humidity Pressure Visibility Wind Dir Wind Speed Gust Speed Precip Events Conditions
12:18 AM 37.9 °F 32.7 °F 37.0 °F 97% 29.82 in 10.0 mi ENE 6.9 mph - 0.00 in Rain Light Rain
12:27 AM 37.9 °F 32.7 °F 37.0 °F 97% 29.82 in 10.0 mi ENE 6.9 mph - 0.00 in   Overcast
12:35 AM 39.0 °F 34.0 °F 37.0 °F 93% 29.81 in 10.0 mi ENE 6.9 mph - 0.00 in   Overcast
12:53 AM 37.9 °F 32.7 °F 36.0 °F 93% 29.81 in 10.0 mi ENE 6.9 mph - 0.00 in Rain Light Rain
1:53 AM 37.0 °F 31.6 °F 35.1 °F 93% 29.82 in 10.0 mi North 6.9 mph - 0.00 in   Overcast
2:53 AM 37.0 °F 34.5 °F 35.1 °F 93% 29.83 in 10.0 mi North 3.5 mph - 0.00 in Rain Light Rain
3:12 AM 37.0 °F 33.3 °F 35.1 °F 93% 29.83 in 10.0 mi North 4.6 mph - 0.00 in Rain Light Rain
3:53 AM 37.0 °F 32.4 °F 36.0 °F 96% 29.83 in 10.0 mi NNE 5.8 mph - 0.01 in Rain Light Rain
4:53 AM 37.0 °F 31.0 °F 35.1 °F 93% 29.83 in 10.0 mi NE 8.1 mph - 0.00 in   Overcast
5:53 AM 37.0 °F 33.3 °F 35.1 °F 93% 29.84 in 10.0 mi NNE 4.6 mph - 0.00 in   Overcast
6:53 AM 36.0 °F 29.6 °F 33.1 °F 89% 29.83 in 10.0 mi North 8.1 mph - N/A   Mostly Cloudy
7:53 AM 37.0 °F 31.0 °F 33.1 °F 86% 29.82 in 10.0 mi NNE 8.1 mph - N/A   Mostly Cloudy
8:53 AM 39.0 °F 32.3 °F 34.0 °F 82% 29.82 in 10.0 mi NE 10.4 mph - N/A   Mostly Cloudy
9:53 AM 42.1 °F 36.6 °F 35.1 °F 76% 29.83 in 10.0 mi ENE 9.2 mph - N/A   Overcast
10:53 AM 43.0 °F 37.2 °F 36.0 °F 76% 29.83 in 10.0 mi ENE 10.4 mph - 0.00 in Rain Light Rain
11:53 AM 45.0 °F 38.2 °F 36.0 °F 71% 29.83 in 10.0 mi East 15.0 mph - 0.00 in   Mostly Cloudy
12:53 PM 45.0 °F 38.5 °F 36.0 °F 71% 29.83 in 10.0 mi East 13.8 mph - N/A   Mostly Cloudy
1:53 PM 43.0 °F 36.0 °F 35.1 °F 74% 29.83 in 10.0 mi East 13.8 mph - N/A   Scattered Clouds
2:53 PM 43.0 °F 36.0 °F 35.1 °F 74% 29.82 in 10.0 mi East 13.8 mph - N/A   Scattered Clouds
3:53 PM 43.0 °F 34.8 °F 34.0 °F 71% 29.82 in 10.0 mi East 18.4 mph - N/A   Scattered Clouds
4:53 PM 44.1 °F 36.8 °F 34.0 °F 68% 29.81 in 10.0 mi East 16.1 mph - N/A   Scattered Clouds
5:53 PM 45.0 °F 39.3 °F 34.0 °F 65% 29.81 in 10.0 mi East 11.5 mph - N/A   Scattered Clouds
6:53 PM 46.9 °F - 33.1 °F 59% 29.80 in 10.0 mi East 13.8 mph - N/A   Scattered Clouds
7:53 PM 46.0 °F 42.5 °F 33.1 °F 61% 29.78 in 10.0 mi ENE 6.9 mph - N/A   Scattered Clouds
8:53 PM 46.0 °F 41.4 °F 33.1 °F 61% 29.78 in 10.0 mi ENE 9.2 mph - N/A   Scattered Clouds
9:53 PM 44.1 °F 39.0 °F 34.0 °F 68% 29.77 in 10.0 mi NE 9.2 mph - N/A   Scattered Clouds
10:53 PM 39.0 °F 32.8 °F 32.0 °F 76% 29.77 in 10.0 mi North 9.2 mph - N/A   Partly Cloudy
11:53 PM 41.0 °F 35.8 °F 30.9 °F 67% 29.78 in 10.0 mi North 8.1 mph - N/A   Partly Cloudy